Regional Weather Roundup
Issued by NWS

Home | Current Version | Previous Version | Text Only | Print | Product List | Glossary Off
Versions: 1 2 3 4 5 6 7 8 9 10 11 12 13 14 15 16 17 18 19 20 21 22 23 24 25 26 27 28 29 30 31 32 33 34 35 36 37 38 39 40 41 42 43 44 45 46 47 48 49 50

000
ASUS44 KMEG 021600
RWRTN
TENNESSEE HOURLY STATE WEATHER ROUNDUP
NATIONAL WEATHER SERVICE MEMPHIS TN
1100 AM CDT TUE SEP 02 2014

TNZ002-004-019-021-049-052-054-088>092-021700-
WEST TENNESSEE

CITY           SKY/WX    TMP DP  RH WIND       PRES   REMARKS
MEMPHIS INTL   CLOUDY    84  75  74 W7        30.06F HX  92
NWS MEMPHIS      N/A     83 N/A N/A MISG        N/A
JACKSON        CLOUDY    83  74  74 SW13      30.05S
DYERSBURG      PTSUNNY   82  70  65 SW12      30.03F
UNION CITY     MOSUNNY   81  75  83 SW10      30.00S
PARIS          CLOUDY    81  72  74 SW13      30.03S
LEXINGTON      MOSUNNY   84  73  70 SW13      30.04S HX  91
SAVANNAH       PTSUNNY   84  75  74 SW8       30.06F HX  92
$$

TNZ008-025-027-028-033-062-065-066-021700-
NORTH MIDDLE TENNESSEE

CITY           SKY/WX    TMP DP  RH WIND       PRES   REMARKS
NASHVILLE      PTSUNNY   87  72  60 SW8G20    30.05S HX  93
CLARKSVILLE    MOSUNNY   84  74  71 SW12      30.01F HX  91
COOKEVILLE     SUNNY     84  73  70 SW10      30.08F HX  91
CROSSVILLE     MOSUNNY   81  69  67 VRB7      30.14F
$$

TNZ061-075-076-078-094-096-097-021700-
SOUTH MIDDLE TENNESSEE

CITY           SKY/WX    TMP DP  RH WIND       PRES   REMARKS
FAYETTEVILLE   MOSUNNY   82  72  69 SW8       30.11S
TULLAHOMA      MOSUNNY   84  72  65 SW10      30.11F
WINCHESTER     SUNNY     84  72  65 W8        30.11F
SHELBYVILLE    MOSUNNY   88  75  66 SW8       30.09S HX  97
$$

TNZ017-018-042-046-047-021700-
NORTHEAST TENNESSEE

CITY           SKY/WX    TMP DP  RH WIND       PRES   REMARKS
TRI CITIES     MOSUNNY   82  69  64 MISG      30.14S
ELIZABETHTON   PTSUNNY   79  68  69 NW3       30.14F
$$

TNZ012-013-036-069-073-074-021700-
CENTRAL EAST TENNESSEE

CITY           SKY/WX    TMP DP  RH WIND       PRES   REMARKS
KNOXVILLE      MOSUNNY   84  71  65 SW10      30.09F
OAK RIDGE      SUNNY     84  71  65 VRB6      30.10F
GATLINBURG     MOSUNNY   88  70  55 VRB6      30.10F HX  92
$$

TNZ083-085-099-021700-
SOUTHEAST TENNESSEE

CITY           SKY/WX    TMP DP  RH WIND       PRES   REMARKS
CHATTANOOGA    MOSUNNY   86  70  58 MISG      30.10F HX  90
$$

SKY/WX REPORTED AS FAIR MEANS FEW OR NO CLOUDS BELOW
12 THOUSAND FEET.



USA.gov is the U.S. government's official web portal to all federal, state and local government web resources and services.